Dewpoint
55 54 54 54 54 53 53 52 52 51 51 51 51 51 50 49 47 46 45 46 46 47 46 46 46 46 46 47 47 47 46 45 44 43 43 43 42 43 43 41 39 39 39 38 39 38 38 36 34 31 30 22
54 54 54 53 53 53 52 51 52 51 51 51 51 50 49 48 46 45 45 45 45 46 45 45 45 45 46 47 47 47 45 45 44 43 43 42 42 42 42 40 39 38 38 37 38 37 36 33 31 30 30 20
52 53 53 53 52 52 52 51 50 51 51 50 50 49 48 47 46 45 45 45 45 45 45 44 44 45 46 47 47 46 45 45 43 42 43 42 42 42 41 39 37 36 36 36 36 36 34 30 28 29 28 20
45 53 52 52 52 52 51 50 49 49 50 50 50 49 48 48 45 45 44 44 42 44 45 43 42 44 46 46 46 45 45 44 43 42 42 41 41 41 39 37 34 33 34 35 34 34 32 29 30 18 19 19
43 45 52 52 52 51 51 50 49 48 49 49 51 49 49 48 44 40 38 40 39 43 44 42 40 43 45 45 45 45 45 44 42 42 41 40 40 40 37 33 30 30 32 33 32 32 29 29 17 19 19 19
42 43 49 46 46 47 49 50 49 47 44 48 42 48 45 40 40 36 35 34 41 39 41 38 38 39 42 44 44 44 44 42 41 41 41 39 40 39 35 30 17 25 35 31 30 29 29 19 19 19 19 19
41 42 43 43 43 44 49 46 47 42 44 39 38 39 38 40 37 33 32 34 36 37 39 36 37 38 41 43 43 43 42 40 40 40 40 39 40 38 33 21 19 19 19 24 31 31 22 19 19 20 20 19
40 40 40 42 42 42 42 42 43 39 38 37 36 37 36 36 34 33 29 37 39 38 37 36 37 37 38 39 42 40 43 38 37 38 37 38 39 35 28 19 21 20 21 22 21 20 20 19 20 19 21 21
40 39 39 40 40 40 40 40 39 39 37 36 35 34 34 32 33 30 26 28 32 32 32 29 30 32 28 26 31 34 19 22 29 24 19 26 28 22 23 20 20 21 22 26 22 21 21 21 21 21 23 18
41 40 38 37 39 38 38 38 38 38 36 34 33 32 32 33 31 27 25 24 27 30 29 28 28 27 23 19 25 34 21 20 20 20 19 19 20 19 20 18 19 25 27 21 21 21 21 21 21 19 19 18
40 39 38 36 37 38 37 36 37 37 35 34 32 31 32 31 28 26 24 22 25 28 27 26 25 24 23 19 19 30 20 21 23 20 20 19 19 19 19 20 20 23 21 21 21 22 21 21 20 20 18 17
39 39 38 37 41 38 37 36 36 36 35 34 32 31 30 34 27 25 23 22 22 25 25 25 23 22 21 20 19 27 21 21 22 21 20 19 19 19 19 19 21 21 21 21 20 21 21 21 19 18 17 18
38 38 38 38 37 37 39 36 34 34 35 33 32 30 30 33 26 24 23 21 20 23 24 23 22 21 20 20 19 25 24 21 20 20 19 21 19 18 20 19 19 22 22 21 20 19 21 20 18 18 19 18
37 37 37 37 37 36 42 36 34 34 33 33 31 30 29 30 28 24 22 20 20 21 22 22 22 22 20 20 20 24 21 24 20 19 20 20 19 19 19 19 20 24 20 19 19 19 20 18 18 18 18 18
35 36 36 37 36 36 37 37 35 34 33 32 30 30 29 28 30 25 22 20 19 19 20 21 21 21 20 20 20 22 20 25 20 20 19 19 18 18 19 18 21 20 18 18 18 22 19 16 17 17 18 18
34 34 35 36 36 36 36 36 35 33 32 33 30 30 29 27 27 30 22 20 19 18 19 20 21 21 20 20 20 23 20 23 24 21 20 20 19 19 19 20 20 21 17 16 16 16 16 17 17 17 16 16
33 34 34 34 34 35 36 35 35 33 32 31 31 29 28 27 27 29 24 20 20 26 18 19 20 21 23 20 20 23 22 23 23 22 22 22 23 21 20 19 18 23 15 13 14 15 16 16 17 16 16 15
32 32 32 33 32 34 34 33 33 33 32 31 30 29 28 27 26 27 25 21 19 20 18 18 19 20 21 21 21 23 24 22 22 20 20 20 20 26 21 17 17 19 15 16 16 15 15 17 16 15 15 15
31 31 31 31 31 31 32 32 32 32 31 29 29 28 27 26 26 27 25 23 19 19 19 17 18 19 20 21 21 21 24 20 20 19 18 22 16 22 18 15 19 17 14 15 15 14 19 18 16 18 16 15
31 31 30 30 32 29 30 30 30 30 30 28 27 27 25 25 26 26 25 24 21 18 18 17 16 18 19 21 22 20 23 21 19 18 17 23 15 16 15 17 13 21 15 15 15 17 18 17 21 16 15 14
31 29 28 27 28 29 28 28 28 28 28 27 25 25 25 24 25 26 25 24 22 19 18 18 16 17 19 21 20 19 21 21 20 17 17 19 21 15 15 18 13 15 19 16 18 16 17 16 19 16 13 13
30 29 27 26 26 30 26 26 26 27 27 26 25 24 24 24 25 26 25 24 23 20 19 18 17 16 18 20 20 18 18 19 21 18 16 16 21 16 14 16 14 12 14 17 14 17 15 15 14 12 12 13
29 28 25 24 23 24 25 25 25 25 25 26 24 23 24 24 23 26 24 24 24 21 20 20 18 17 18 20 19 17 17 18 21 20 17 16 17 21 14 13 13 12 13 13 17 15 14 14 13 13 13 17
30 29 28 25 23 23 24 24 26 25 25 25 24 25 24 23 23 24 25 24 23 22 21 20 19 18 18 19 18 17 16 16 18 19 17 16 15 18 19 21 15 16 18 17 13 16 15 14 14 12 15 13
28 27 26 25 25 24 24 24 24 25 25 24 24 24 24 23 23 23 24 25 23 22 24 20 19 18 18 19 19 17 15 15 16 17 17 17 20 16 14 16 16 15 13 11 9 12 12 11 10 16 16 14
29 28 27 26 26 25 25 25 26 24 23 24 24 25 24 23 23 22 23 26 23 23 21 21 19 18 18 18 19 17 17 15 22 20 17 16 17 19 13 12 15 13 13 11 7 6 6 9 8 12 16 14
28 27 27 26 25 23 24 23 24 24 26 25 24 23 24 24 23 22 22 23 25 23 21 20 20 19 18 17 19 18 16 17 18 18 17 15 14 16 17 14 15 13 10 6 12 11 7 -2 -1 8 10 12
32 28 28 26 23 21 22 23 28 23 24 23 23 23 23 23 23 23 22 22 24 24 22 20 20 19 18 17 18 17 16 16 16 17 16 15 16 13 13 15 15 14 11 10 7 0 5 0 3 -3 0 5
29 30 26 24 23 24 22 18 18 18 19 21 24 23 22 22 23 23 23 22 22 25 23 21 20 19 18 17 16 18 15 15 15 16 16 15 15 13 11 11 12 18 13 10 9 5 1 -3 0 -1 2 -1
30 28 26 25 25 25 24 24 23 21 21 21 19 20 21 21 22 23 23 23 23 23 25 22 21 20 19 17 17 18 16 15 15 15 15 15 14 13 12 9 10 13 18 12 14 11 2 -0 1 3 5 -9
30 29 28 26 25 24 24 24 24 22 20 20 19 21 20 21 21 22 22 22 22 22 24 24 21 20 19 18 16 19 16 15 14 15 15 15 13 13 15 10 9 10 15 14 13 14 11 11 12 6 -0 -0